Regional Weather Roundup
Issued by NWS Newport/Morehead, NC

Current Version | Previous Version | Graphics & Text | Print | Product List | Glossary Off
Versions: 1 2 3 4 5 6 7 8 9 10 11 12 13 14 15 16 17 18 19 20 21 22 23 24 25 26 27 28 29 30 31 32 33 34 35 36 37 38 39 40 41 42 43 44 45 46 47 48 49 50

000
ASUS42 KMHX 050925
RWRMHX
WEATHER ROUNDUP FOR EASTERN NORTH CAROLINA
NATIONAL WEATHER SERVICE NEWPORT/MOREHEAD CITY NC
500 AM EDT THU MAY 05 2016

NOTE: "FAIR" INDICATES FEW OR NO CLOUDS BELOW 12,000 FEET
WITH NO SIGNIFICANT WEATHER AND/OR OBSTRUCTIONS TO VISIBILITY

NCZ015>017-031-032-045>047-102-103-051000-
NORTH COAST

CITY           SKY/WX    TMP DP  RH WIND       PRES   REMARKS
EDENTON        CLOUDY    55  55 100 NE6       29.57S
ELIZABETH CITY CLOUDY    54  54 100 NE12      29.56S FOG
KITTY HAWK     CLOUDY    53  53 100 NE8       29.55R FOG
MANTEO         CLOUDY    53  53 100 NE12      29.56R FOG

$$

NCZ045>047-081-094-103-104-051000-
CENTRAL COAST

CITY           SKY/WX    TMP DP  RH WIND       PRES   REMARKS
FRISCO         CLOUDY    58  56  93 NE12G18   29.52S
SWANQUARTER    NOT AVBL

$$

NCZ095-097-098-100-101-051000-
SOUTHERN COAST

CITY           SKY/WX    TMP DP  RH WIND       PRES   REMARKS
BEAUFORT       CLOUDY    63  60  90 NE8       29.52F
CEDAR ISLAND   NOT AVBL
JACKSONVILLE   CLOUDY    64  61  90 N7        29.52R
PINEY ISLAND   CLOUDY   N/A N/A N/A NE12      29.53
WILMINGTON     MOCLDY    60  57  89 CALM      29.52S


$$

NCZ011>013-027>030-043-044-078>080-089-090>093-098-051000-
COASTAL PLAIN

CITY           SKY/WX    TMP DP  RH WIND       PRES   REMARKS
AHOSKIE        CLOUDY    54  52  93 NE5       29.58R
CLINTON        MOCLDY    58  57  99 CALM      29.54R
ELIZABETHTOWN  MOCLDY    57  55  92 CALM      29.53R
GOLDSBORO      MOCLDY    61  61 100 E8        29.51S
GREENVILLE     MOCLDY    59  57  94 NE3       29.58R
HAVELOCK       CLOUDY    62  59  90 NE16      29.54R
KENANSVILLE    CLOUDY    61  60  98 CALM      29.54S FOG
KINSTON        CLOUDY    60  60  99 E7        29.54S FOG
NEW BERN       CLOUDY    61  58  90 NE10      29.55R
RICHLANDS      CLOUDY    63  62  97 E5        29.53S
ROCKY MOUNT    CLOUDY    59  57  93 NE6       29.55S
WASHINGTON     CLOUDY    58  56  92 E7        29.53F FOG
WHITEVILLE     NOT AVBL

$$

AMZ130-135-150-152-154-156-158-170-250-252-270-ANZ085-086-088-633-658-670-051000-
MARINE OBSERVATIONS

STATION/POSITION TIME  TEMP    WIND        PRES    WAVE   SWELL
                       AIR SEA DIR/SP/G            HT/PER HT/PER
                 (UTC) (F)     (DEG/KT/KT) (MB)    (FT/S) (FT/S)
CHESAPEAKE LIGHT 0900   50      30/ 24/ 26 1001.2
64 E VA BEACH    0850   51 53   20/ 19/ 21  999.9    4/ 7   2/ 7
DUCK             0900   53 61   30/ 20/ 23 1000.1
2 E DUCK         0811      60                N/A     4/ 6
OREGON INLET     0900   53 62   10/ 13/ 18 1000.2
13E OREGON INLT  0900      58                N/A     5/ 7   3/ 7
HATTERAS CG      0900   60 69   30/ 12/ 16  999.3
DIAMOND BUOY     0850   63 71   40/ 16/ 17  999.0    4/ 8   2/ 8
CAPE LOOKOUT     0900   63      40/ 17/ 19  999.2
BEAUFORT LAB     0900   63 67   40/  7/ 10  998.7
30 SE NEW RVR IN 0825      72                N/A     4/ 6
27 SE WRIGHTSVLE 0908   69 72   70/  8/ 12  998.2
5 SE WRIGHTSVLE  0908   65 69  360/  8/ 10  999.9
225 S CAPE HAT   0850   72 73  170/ 12/ 14  999.1    5/ 7   3/ 7
41 SE CHARLESTON 0850   70 74  300/ 17/ 21 1000.7    3/ 5   2/ 8

$$



USA.gov is the U.S. government's official web portal to all federal, state and local government web resources and services.